Mitchell, SD

10:26 PM CDT on September 18, 2019 (GMT -0500)
Mitchell Municipal

Weather History for KMHE - May, 2019

Change the Weather History Date:

Sunday, May 26, 2019

  Actual Average Record
Temperature  
Mean Temperature 63 °F 62 °F  
Max Temperature 77 °F 74 °F 102 °F (1967)
Min Temperature 48 °F 51 °F 32 °F (1971)
Degree Days  
Heating Degree Days 2 4  
Month to date heating degree days 279 191  
Since 1 July heating degree days 7967 7191  
Cooling Degree Days 0 2  
Month to date cooling degree days 7 26  
Year to date cooling degree days 7 28  
Growing Degree Days 14 (Base 50)    
Moisture  
Dew Point 51 °F    
Average Humidity 67    
Maximum Humidity 93    
Minimum Humidity 40    
Precipitation  
Precipitation 0.23 in 0.14 in 2.28 in (1908)
Month to date precipitation 4.19 2.18  
Year to date precipitation 11.77 5.98  
Snow  
Snow 0.00 in - 0.00 in ()
Month to date snowfall 0.0  
Since 1 July snowfall 67.6  
Snow Depth 0.00 in    
Sea Level Pressure  
Sea Level Pressure 30.00 in    
Wind  
Wind Speed 9 mph (SE)    
Max Wind Speed 22 mph    
Max Gust Speed 31 mph    
Visibility 10 miles    
Events Rain    
T = Trace of Precipitation, MM = Missing Value Source: NWS Daily Summary

Daily Weather History Graph

Daily Weather History Graph

Search for Another Location

Airport or City:

Astronomy

May. 26, 2019 Rise Set
Actual Time 5:56 AM CDT 9:01 PM CDT
Civil Twilight 5:22 AM CDT 9:36 PM CDT
Nautical Twilight 4:38 AM CDT 10:20 PM CDT
Astronomical Twilight 3:45 AM CDT 11:14 PM CDT
Moon 2:30 AM CDT (5/26) 1:00 PM CDT (5/26)
Length of Visible Light 16h 14m
Length of Day
15h 04m
Waning Gibbous, 50% of the Moon is Illuminated
May 26
Waning Gibbous
Jun 3
New
Jun 10
First Quarter
Jun 17
Full
Jun 25
Last Quarter

Hourly Weather History & Observations

Time (CDT) Temp. Dew Point Humidity Pressure Visibility Wind Dir Wind Speed Gust Speed Precip Events Conditions
12:53 AM 57.9 °F 50.0 °F 75% 30.03 in 10.0 mi SSE 3.5 mph - N/A   Clear
1:53 AM 54.0 °F 48.9 °F 83% 30.03 in 10.0 mi Calm Calm - N/A   Clear
2:53 AM 53.1 °F 48.9 °F 86% 30.04 in 10.0 mi Calm Calm - N/A   Clear
3:53 AM 50.0 °F 48.0 °F 93% 30.05 in 2.5 mi East 3.5 mph - N/A   Clear
4:01 AM 52.0 °F 48.9 °F 89% 30.05 in 7.0 mi ESE 3.5 mph - N/A   Clear
4:53 AM 50.0 °F 48.0 °F 93% 30.05 in 10.0 mi Calm Calm - N/A   Clear
5:53 AM 50.0 °F 46.9 °F 89% 30.05 in 10.0 mi East 3.5 mph - N/A   Clear
6:53 AM 52.0 °F 48.9 °F 89% 30.06 in 10.0 mi ESE 8.1 mph - N/A   Clear
7:53 AM 55.9 °F 50.0 °F 80% 30.07 in 10.0 mi SE 6.9 mph - N/A   Clear
8:53 AM 60.1 °F 50.0 °F 69% 30.08 in 10.0 mi SE 10.4 mph - N/A   Clear
9:53 AM 64.0 °F 52.0 °F 65% 30.08 in 10.0 mi SSE 12.7 mph - N/A   Clear
10:53 AM 66.9 °F 52.0 °F 59% 30.08 in 10.0 mi South 11.5 mph - N/A   Clear
11:53 AM 66.9 °F 51.1 °F 57% 30.09 in 10.0 mi South 12.7 mph 23.0 mph N/A   Clear
12:53 PM 70.0 °F 52.0 °F 53% 30.06 in 10.0 mi South 16.1 mph 25.3 mph N/A   Clear
1:53 PM 71.1 °F 53.1 °F 53% 30.00 in 10.0 mi SSE 20.7 mph 31.1 mph N/A   Clear
2:53 PM 73.9 °F 53.1 °F 48% 30.00 in 10.0 mi SSE 15.0 mph 25.3 mph N/A   Clear
3:53 PM 75.0 °F 52.0 °F 44% 29.99 in 10.0 mi SE 12.7 mph - N/A   Clear
4:53 PM 77.0 °F 51.1 °F 40% 29.97 in 10.0 mi South 11.5 mph - N/A   Clear
5:53 PM 73.0 °F 52.0 °F 48% 29.94 in 10.0 mi SE 9.2 mph - N/A   Clear
6:53 PM 73.0 °F 53.1 °F 49% 29.90 in 10.0 mi East 9.2 mph - N/A   Clear
7:53 PM 70.0 °F 54.0 °F 57% 29.89 in 10.0 mi NE 6.9 mph - N/A   Mostly Cloudy
8:53 PM 69.1 °F 55.0 °F 61% 29.88 in 10.0 mi ESE 6.9 mph - N/A   Overcast
9:53 PM 64.9 °F 55.9 °F 73% 29.87 in 10.0 mi East 6.9 mph - 0.01 in   Mostly Cloudy
10:53 PM 66.0 °F 55.0 °F 68% 29.86 in 10.0 mi ESE 10.4 mph - N/A   Overcast
11:53 PM 63.0 °F 55.9 °F 78% 29.86 in 8.0 mi SE 11.5 mph 21.9 mph 0.04 in Rain Light Rain